Location: ?p Thanh B�nh
(16.5833°N, 107.5333°E)
Time: 10:08:57
(UTC+00:00)

Cosmos 1408 - Pass Details

Date: 29 October 2020
Orbit: 470 x 492 km, 82.6° (Epoch: 23 November)

Event Time Altitude Azimuth Distance (km) Brightness Sun altitude
Rises 12:03:59 0° 343° (NNW) 2,550 6.3 -25.2°
Reaches altitude 10° 12:06:11 10° 334° (NNW) 1,672 5.5 -25.7°
Maximum altitude 12:09:33 35° 267° (W) 810 4.2 -26.5°
Drops below altitude 10° 12:12:55 10° 201° (SSW) 1,677 5.6 -27.3°
Sets 12:15:08 0° 192° (SSW) 2,558 6.5 -27.8°
